Location: Dana
(41.8364°N, 106.7042°W)
Time: 11:08:22
(UTC+00:00)

Tiros 1 despin weight - Pass Details

Date: 16 May 2026
Orbit: 554 x 591 km, 48.2° (Epoch: 10 June)

Event Time Altitude Azimuth Distance (km) Brightness Sun altitude
Rises 10:22:04 0° 199° (SSW) 2,759 - -13.7°
Exits shadow 10:24:51 10° 181° (S) 1,859 ? -13.3°
Reaches altitude 10° 10:24:52 10° 181° (S) 1,858 ? -13.3°
Maximum altitude 10:27:50 19° 136° (SE) 1,381 ? -12.9°
Drops below altitude 10° 10:30:49 10° 91° (E) 1,850 ? -12.4°
Sets 10:33:34 0° 73° (ENE) 2,743 ? -12.0°
